Погода в Терекли-Мектебе

Россия / Республика Дагестан     44°09′58″N   45°52′20″E
темп.,
°C
ветер,
м/с
пор.,
м/с
влажн.,
%
обл.,
%
осадки,
мм/ч
давл.,
гПа
погр.,
м
11 апреля, вс
вс1100:00+9з4677100 0.0 1020188
03:00+7зсз238397 0.0 102049
06:00+7сз228493 0.0 101949
09:00+11с11645 0.0 1019646
12:00+16в354947 0.0 10181216
15:00+21в6838100 0.0 10151600
18:00+17всв565194 0.0 1015209
21:00+14в466277 0.0 1016124
12 апреля, пн
пн1200:00+13в126453 0.0 101554
03:00+10з227678 0.0 101516
06:00+11зюз3378100 0.0 101670
09:00+15зсз3361100 0.0 1018603
12:00+18сз2152100 0.0 10171168
15:00+20вюв0248100 0.0 10181452
18:00+18юв1355100 0.0 1019171
21:00+13зсз367666 0.0 1020146
13 апреля, вт
вт1300:00+11зсз1384100 0.0 102073
03:00+12з238140 0.0 1020113
06:00+11з338681 0.0 1020113
09:00+15ссз0170100 0.0 1021620
12:00+18ююв3460100 0.2 10201300
15:00+17юз336296 0.6 1020757
18:00+15з5473100 0.1 1020321
21:00+13зсз348194 0.4 1020161
14 апреля, ср
ср1400:00+10зсз128995 0.0 101829
03:00+10зюз2393100 0.0 101748
06:00+9з4794100 0.0 1017206
09:00+14з3372100 0.0 1017572
12:00+18зюз3256100 0.0 10161281
15:00+17зюз2258100 0.0 10171018
18:00+16юз2366100 0.1 1017208
21:00+14з3574100 0.4 1018222
15 апреля, чт
чт1500:00+12зсз357991 0.0 1017130
03:00+10з348685 0.0 101776
06:00+10з46850 0.0 1017129
09:00+16сз44610 0.0 1017605
12:00+19сз33460 0.0 10161257
15:00+22с22390 0.0 10141357
18:00+20св12475 0.0 101418
21:00+17с225345 0.0 101511